Year,Month,Day,Hour,Minute,Value (Times are PST for windspeed in km/hr)
2006,12,22,00,00,1.90
2006,12,22,00,01,1.00
2006,12,22,00,02,0.60
2006,12,22,00,03,3.80
2006,12,22,00,04,5.60
2006,12,22,00,05,5.20
2006,12,22,00,06,4.70
2006,12,22,00,07,1.30
2006,12,22,00,08,4.00
2006,12,22,00,09,5.90
2006,12,22,00,10,7.30
2006,12,22,00,11,4.90
2006,12,22,00,12,2.20
2006,12,22,00,13,3.60
2006,12,22,00,14,2.40
2006,12,22,00,15,2.20
2006,12,22,00,16,2.60
2006,12,22,00,17,2.70
2006,12,22,00,18,4.20
2006,12,22,00,19,1.40
2006,12,22,00,20,2.10
2006,12,22,00,21,2.20
2006,12,22,00,22,1.50
2006,12,22,00,23,1.60
2006,12,22,00,24,1.90
2006,12,22,00,25,1.90
2006,12,22,00,26,4.30
2006,12,22,00,27,2.30
2006,12,22,00,28,2.30
2006,12,22,00,29,6.10
2006,12,22,00,30,3.20
2006,12,22,00,31,2.50
2006,12,22,00,32,4.00
2006,12,22,00,33,4.60
2006,12,22,00,34,2.00
2006,12,22,00,35,5.70
2006,12,22,00,36,5.20
2006,12,22,00,37,1.80
2006,12,22,00,38,1.30
2006,12,22,00,39,3.10
2006,12,22,00,40,4.70
2006,12,22,00,41,2.40
2006,12,22,00,42,5.20
2006,12,22,00,43,5.40
2006,12,22,00,44,2.80
2006,12,22,00,45,4.80
2006,12,22,00,46,7.20
2006,12,22,00,47,2.70
2006,12,22,00,48,6.30
2006,12,22,00,49,3.30
2006,12,22,00,50,4.00
2006,12,22,00,51,0.90
2006,12,22,00,52,2.20
2006,12,22,00,53,0.20
2006,12,22,00,54,1.10
2006,12,22,00,55,2.10
2006,12,22,00,56,0.50
2006,12,22,00,57,1.40
2006,12,22,00,58,1.80
2006,12,22,00,59,6.80
2006,12,22,01,00,4.90
2006,12,22,01,01,3.30
2006,12,22,01,02,1.80
2006,12,22,01,03,2.20
2006,12,22,01,04,0.20
2006,12,22,01,05,1.90
2006,12,22,01,06,2.00
2006,12,22,01,07,3.30
2006,12,22,01,08,3.90
2006,12,22,01,09,2.30
2006,12,22,01,10,4.60
2006,12,22,01,11,3.30
2006,12,22,01,12,1.70
2006,12,22,01,13,4.60
2006,12,22,01,14,5.00
2006,12,22,01,15,2.70
2006,12,22,01,16,4.60
2006,12,22,01,17,2.30
2006,12,22,01,18,5.30
2006,12,22,01,19,9.50
2006,12,22,01,20,3.90
2006,12,22,01,21,4.70
2006,12,22,01,22,6.70
2006,12,22,01,23,6.40
2006,12,22,01,24,5.10
2006,12,22,01,25,5.20
2006,12,22,01,26,3.60
2006,12,22,01,27,3.50
2006,12,22,01,28,2.70
2006,12,22,01,29,1.20
2006,12,22,01,30,4.10
2006,12,22,01,31,3.10
2006,12,22,01,32,2.30
2006,12,22,01,33,7.20
2006,12,22,01,34,4.20
2006,12,22,01,35,5.10
2006,12,22,01,36,12.10
2006,12,22,01,37,4.50
2006,12,22,01,38,0.60
2006,12,22,01,39,1.40
2006,12,22,01,40,3.40
2006,12,22,01,41,0.80
2006,12,22,01,42,0.70
2006,12,22,01,43,0.00
2006,12,22,01,44,0.20
2006,12,22,01,45,0.60
2006,12,22,01,46,4.40
2006,12,22,01,47,0.00
2006,12,22,01,48,0.30
2006,12,22,01,49,0.30
2006,12,22,01,50,3.60
2006,12,22,01,51,3.50
2006,12,22,01,52,0.40
2006,12,22,01,53,2.80
2006,12,22,01,54,0.30
2006,12,22,01,55,1.00
2006,12,22,01,56,1.10
2006,12,22,01,57,2.90
2006,12,22,01,58,0.00
2006,12,22,01,59,0.00
2006,12,22,02,00,0.50
2006,12,22,02,01,1.20
2006,12,22,02,02,0.00
2006,12,22,02,03,0.00
2006,12,22,02,04,0.00
2006,12,22,02,05,0.10
2006,12,22,02,06,0.20
2006,12,22,02,07,0.10
2006,12,22,02,08,0.20
2006,12,22,02,09,0.20
2006,12,22,02,10,0.60
2006,12,22,02,11,0.20
2006,12,22,02,12,0.40
2006,12,22,02,13,1.90
2006,12,22,02,14,0.30
2006,12,22,02,15,0.20
2006,12,22,02,16,0.00
2006,12,22,02,17,0.00
2006,12,22,02,18,0.10
2006,12,22,02,19,0.10
2006,12,22,02,20,0.00
2006,12,22,02,21,0.40
2006,12,22,02,22,0.00
2006,12,22,02,23,0.40
2006,12,22,02,24,0.00
2006,12,22,02,25,0.50
2006,12,22,02,26,0.30
2006,12,22,02,27,0.50
2006,12,22,02,28,0.00
2006,12,22,02,29,0.20
2006,12,22,02,30,0.60
2006,12,22,02,31,0.10
2006,12,22,02,32,0.00
2006,12,22,02,33,0.00
2006,12,22,02,34,0.20
2006,12,22,02,35,0.10
2006,12,22,02,36,0.00
2006,12,22,02,37,1.20
2006,12,22,02,38,0.10
2006,12,22,02,39,0.00
2006,12,22,02,40,1.40
2006,12,22,02,41,0.90
2006,12,22,02,42,0.10
2006,12,22,02,43,0.80
2006,12,22,02,44,4.80
2006,12,22,02,45,2.00
2006,12,22,02,46,2.00
2006,12,22,02,47,0.80
2006,12,22,02,48,4.70
2006,12,22,02,49,3.20
2006,12,22,02,50,2.90
2006,12,22,02,51,2.30
2006,12,22,02,52,1.80
2006,12,22,02,53,0.70
2006,12,22,02,54,2.30
2006,12,22,02,55,1.70
2006,12,22,02,56,3.20
2006,12,22,02,57,4.30
2006,12,22,02,58,3.60
2006,12,22,02,59,1.20
2006,12,22,03,00,2.00
2006,12,22,03,01,3.20
2006,12,22,03,02,1.30
2006,12,22,03,03,3.70
2006,12,22,03,04,3.50
2006,12,22,03,05,5.10
2006,12,22,03,06,6.20
2006,12,22,03,07,1.80
2006,12,22,03,08,4.10
2006,12,22,03,09,2.70
2006,12,22,03,10,3.90
2006,12,22,03,11,3.60
2006,12,22,03,12,2.20
2006,12,22,03,13,6.80
2006,12,22,03,14,5.10
2006,12,22,03,15,5.30
2006,12,22,03,16,4.10
2006,12,22,03,17,6.80
2006,12,22,03,18,3.90
2006,12,22,03,19,2.60
2006,12,22,03,20,6.10
2006,12,22,03,21,6.20
2006,12,22,03,22,6.20
2006,12,22,03,23,7.80
2006,12,22,03,24,5.20
2006,12,22,03,25,6.40
2006,12,22,03,26,4.70
2006,12,22,03,27,4.60
2006,12,22,03,28,1.90
2006,12,22,03,29,4.50
2006,12,22,03,30,4.90
2006,12,22,03,31,5.10
2006,12,22,03,32,4.30
2006,12,22,03,33,2.00
2006,12,22,03,34,0.50
2006,12,22,03,35,1.50
2006,12,22,03,36,4.80
2006,12,22,03,37,0.80
2006,12,22,03,38,0.10
2006,12,22,03,39,0.10
2006,12,22,03,40,1.80
2006,12,22,03,41,1.20
2006,12,22,03,42,2.10
2006,12,22,03,43,3.20
2006,12,22,03,44,0.10
2006,12,22,03,45,0.90
2006,12,22,03,46,1.10
2006,12,22,03,47,0.90
2006,12,22,03,48,0.90
2006,12,22,03,49,0.10
2006,12,22,03,50,0.60
2006,12,22,03,51,0.10
2006,12,22,03,52,0.80
2006,12,22,03,53,1.90
2006,12,22,03,54,2.20
2006,12,22,03,55,0.80
2006,12,22,03,56,1.30
2006,12,22,03,57,2.70
2006,12,22,03,58,1.20
2006,12,22,03,59,0.10
2006,12,22,04,00,0.30
2006,12,22,04,01,0.60
2006,12,22,04,02,3.40
2006,12,22,04,03,1.40
2006,12,22,04,04,2.10
2006,12,22,04,05,4.00
2006,12,22,04,06,2.50
2006,12,22,04,07,2.60
2006,12,22,04,08,2.90
2006,12,22,04,09,0.90
2006,12,22,04,10,1.20
2006,12,22,04,11,0.50
2006,12,22,04,12,0.50
2006,12,22,04,13,1.30
2006,12,22,04,14,1.90
2006,12,22,04,15,0.60
2006,12,22,04,16,0.00
2006,12,22,04,17,1.20
2006,12,22,04,18,2.70
2006,12,22,04,19,0.80
2006,12,22,04,20,1.40
2006,12,22,04,21,0.80
2006,12,22,04,22,1.40
2006,12,22,04,23,0.60
2006,12,22,04,24,1.40
2006,12,22,04,25,0.90
2006,12,22,04,26,0.20
2006,12,22,04,27,1.00
2006,12,22,04,28,0.80
2006,12,22,04,29,0.40
2006,12,22,04,30,1.90
2006,12,22,04,31,0.50
2006,12,22,04,32,0.50
2006,12,22,04,33,0.20
2006,12,22,04,34,0.00
2006,12,22,04,35,0.00
2006,12,22,04,36,0.00
2006,12,22,04,37,0.50
2006,12,22,04,38,0.20
2006,12,22,04,39,0.00
2006,12,22,04,40,0.10
2006,12,22,04,41,0.00
2006,12,22,04,42,0.00
2006,12,22,04,43,0.10
2006,12,22,04,44,0.00
2006,12,22,04,45,0.20
2006,12,22,04,46,0.10
2006,12,22,04,47,0.10
2006,12,22,04,48,0.10
2006,12,22,04,49,1.80
2006,12,22,04,50,2.30
2006,12,22,04,51,1.40
2006,12,22,04,52,1.00
2006,12,22,04,53,1.30
2006,12,22,04,54,2.10
2006,12,22,04,55,2.00
2006,12,22,04,56,0.30
2006,12,22,04,57,1.10
2006,12,22,04,58,3.50
2006,12,22,04,59,1.00
2006,12,22,05,00,1.20
2006,12,22,05,01,3.10
2006,12,22,05,02,3.10
2006,12,22,05,03,0.90
2006,12,22,05,04,6.40
2006,12,22,05,05,6.70
2006,12,22,05,06,4.30
2006,12,22,05,07,1.90
2006,12,22,05,08,1.90
2006,12,22,05,09,2.00
2006,12,22,05,10,3.80
2006,12,22,05,11,2.70
2006,12,22,05,12,3.70
2006,12,22,05,13,3.80
2006,12,22,05,14,1.90
2006,12,22,05,15,2.50
2006,12,22,05,16,2.50
2006,12,22,05,17,2.70
2006,12,22,05,18,4.20
2006,12,22,05,19,1.10
2006,12,22,05,20,2.70
2006,12,22,05,21,2.50
2006,12,22,05,22,3.10
2006,12,22,05,23,3.50
2006,12,22,05,24,3.90
2006,12,22,05,25,1.80
2006,12,22,05,26,1.00
2006,12,22,05,27,3.50
2006,12,22,05,28,1.60
2006,12,22,05,29,3.70
2006,12,22,05,30,4.30
2006,12,22,05,31,3.90
2006,12,22,05,32,1.30
2006,12,22,05,33,3.60
2006,12,22,05,34,4.00
2006,12,22,05,35,3.10
2006,12,22,05,36,2.00
2006,12,22,05,37,2.60
2006,12,22,05,38,3.70
2006,12,22,05,39,3.50
2006,12,22,05,40,2.00
2006,12,22,05,41,1.90
2006,12,22,05,42,5.50
2006,12,22,05,43,7.50
2006,12,22,05,44,2.40
2006,12,22,05,45,0.40
2006,12,22,05,46,1.70
2006,12,22,05,47,5.70
2006,12,22,05,48,0.50
2006,12,22,05,49,1.90
2006,12,22,05,50,1.00
2006,12,22,05,51,0.60
2006,12,22,05,52,2.10
2006,12,22,05,53,3.70
2006,12,22,05,54,3.10
2006,12,22,05,55,0.30
2006,12,22,05,56,0.10
2006,12,22,05,57,0.60
2006,12,22,05,58,2.80
2006,12,22,05,59,0.60
2006,12,22,06,00,0.10
2006,12,22,06,01,0.20
2006,12,22,06,02,0.00
2006,12,22,06,03,0.10
2006,12,22,06,04,0.20
2006,12,22,06,05,0.10
2006,12,22,06,06,0.70
2006,12,22,06,07,0.70
2006,12,22,06,08,0.20
2006,12,22,06,09,0.10
2006,12,22,06,10,1.60
2006,12,22,06,11,0.20
2006,12,22,06,12,0.70
2006,12,22,06,13,0.10
2006,12,22,06,14,0.60
2006,12,22,06,15,0.20
2006,12,22,06,16,0.20
2006,12,22,06,17,0.10
2006,12,22,06,18,0.00
2006,12,22,06,19,0.00
2006,12,22,06,20,0.00
2006,12,22,06,21,0.00
2006,12,22,06,22,0.00
2006,12,22,06,23,1.70
2006,12,22,06,24,0.10
2006,12,22,06,25,0.00
2006,12,22,06,26,0.00
2006,12,22,06,27,0.00
2006,12,22,06,28,0.00
2006,12,22,06,29,0.00
2006,12,22,06,30,0.00
2006,12,22,06,31,0.00
2006,12,22,06,32,0.10
2006,12,22,06,33,0.20
2006,12,22,06,34,0.00
2006,12,22,06,35,0.20
2006,12,22,06,36,0.80
2006,12,22,06,37,0.60
2006,12,22,06,38,0.30
2006,12,22,06,39,0.00
2006,12,22,06,40,0.50
2006,12,22,06,41,0.10
2006,12,22,06,42,0.30
2006,12,22,06,43,0.00
2006,12,22,06,44,0.40
2006,12,22,06,45,0.10
2006,12,22,06,46,0.50
2006,12,22,06,47,0.20
2006,12,22,06,48,0.00
2006,12,22,06,49,0.40
2006,12,22,06,50,0.00
2006,12,22,06,51,0.00
2006,12,22,06,52,0.00
2006,12,22,06,53,0.00
2006,12,22,06,54,0.20
2006,12,22,06,55,0.00
2006,12,22,06,56,0.00
2006,12,22,06,57,0.00
2006,12,22,06,58,0.00
2006,12,22,06,59,0.00
2006,12,22,07,00,0.00
2006,12,22,07,01,0.00
2006,12,22,07,02,0.00
2006,12,22,07,03,0.00
2006,12,22,07,04,0.00
2006,12,22,07,05,0.00
2006,12,22,07,06,0.00
2006,12,22,07,07,0.00
2006,12,22,07,08,0.00
2006,12,22,07,09,0.00
2006,12,22,07,10,0.00
2006,12,22,07,11,0.00
2006,12,22,07,12,0.00
2006,12,22,07,13,0.00
2006,12,22,07,14,0.00
2006,12,22,07,15,0.00
2006,12,22,07,16,0.00
2006,12,22,07,17,0.00
2006,12,22,07,18,0.00
2006,12,22,07,19,0.00
2006,12,22,07,20,0.00
2006,12,22,07,21,0.00
2006,12,22,07,22,0.00
2006,12,22,07,23,0.00
2006,12,22,07,24,0.00
2006,12,22,07,25,0.00
2006,12,22,07,26,0.00
2006,12,22,07,27,0.00
2006,12,22,07,28,0.00
2006,12,22,07,29,0.00
2006,12,22,07,30,0.00
2006,12,22,07,31,0.00
2006,12,22,07,32,0.00
2006,12,22,07,33,0.00
2006,12,22,07,34,0.10
2006,12,22,07,35,0.10
2006,12,22,07,36,0.10
2006,12,22,07,37,0.00
2006,12,22,07,38,0.00
2006,12,22,07,39,0.00
2006,12,22,07,40,0.00
2006,12,22,07,41,0.00
2006,12,22,07,42,0.00
2006,12,22,07,43,0.00
2006,12,22,07,44,0.00
2006,12,22,07,45,0.00
2006,12,22,07,46,0.00
2006,12,22,07,47,0.00
2006,12,22,07,48,0.00
2006,12,22,07,49,0.00
2006,12,22,07,50,0.00
2006,12,22,07,51,0.20
2006,12,22,07,52,0.40
2006,12,22,07,53,0.00
2006,12,22,07,54,0.00
2006,12,22,07,55,0.00
2006,12,22,07,56,0.00
2006,12,22,07,57,0.00
2006,12,22,07,58,0.00
2006,12,22,07,59,0.00
2006,12,22,08,00,0.00
2006,12,22,08,01,0.00
2006,12,22,08,02,0.00
2006,12,22,08,03,0.00
2006,12,22,08,04,0.00
2006,12,22,08,05,0.00
2006,12,22,08,06,0.00
2006,12,22,08,07,0.00
2006,12,22,08,08,0.00
2006,12,22,08,09,0.10
2006,12,22,08,10,0.10
2006,12,22,08,11,0.20
2006,12,22,08,12,0.20
2006,12,22,08,13,0.70
2006,12,22,08,14,0.20
2006,12,22,08,15,0.20
2006,12,22,08,16,0.10
2006,12,22,08,17,0.00
2006,12,22,08,18,0.00
2006,12,22,08,19,0.00
2006,12,22,08,20,0.00
2006,12,22,08,21,0.00
2006,12,22,08,22,0.00
2006,12,22,08,23,0.00
2006,12,22,08,24,0.10
2006,12,22,08,25,0.00
2006,12,22,08,26,0.00
2006,12,22,08,27,0.00
2006,12,22,08,28,0.00
2006,12,22,08,29,0.00
2006,12,22,08,30,0.80
2006,12,22,08,31,0.90
2006,12,22,08,32,0.90
2006,12,22,08,33,0.30
2006,12,22,08,34,1.50
2006,12,22,08,35,1.90
2006,12,22,08,36,1.90
2006,12,22,08,37,2.00
2006,12,22,08,38,1.50
2006,12,22,08,39,2.30
2006,12,22,08,40,1.00
2006,12,22,08,41,0.20
2006,12,22,08,42,0.20
2006,12,22,08,43,0.10
2006,12,22,08,44,1.10
2006,12,22,08,45,0.20
2006,12,22,08,46,0.10
2006,12,22,08,47,0.00
2006,12,22,08,48,0.80
2006,12,22,08,49,0.00
2006,12,22,08,50,0.00
2006,12,22,08,51,0.00
2006,12,22,08,52,1.50
2006,12,22,08,53,0.90
2006,12,22,08,54,2.40
2006,12,22,08,55,0.60
2006,12,22,08,56,0.20
2006,12,22,08,57,0.10
2006,12,22,08,58,0.00
2006,12,22,08,59,2.10
2006,12,22,09,00,1.80
2006,12,22,09,01,0.80
2006,12,22,09,02,0.60
2006,12,22,09,03,1.00
2006,12,22,09,04,0.10
2006,12,22,09,05,0.90
2006,12,22,09,06,1.80
2006,12,22,09,07,1.50
2006,12,22,09,08,2.90
2006,12,22,09,09,4.10
2006,12,22,09,10,2.20
2006,12,22,09,11,2.30
2006,12,22,09,12,4.30
2006,12,22,09,13,3.10
2006,12,22,09,14,3.00
2006,12,22,09,15,2.30
2006,12,22,09,16,1.90
2006,12,22,09,17,5.60
2006,12,22,09,18,3.50
2006,12,22,09,19,2.50
2006,12,22,09,20,1.60
2006,12,22,09,21,1.30
2006,12,22,09,22,0.90
2006,12,22,09,23,2.30
2006,12,22,09,24,2.10
2006,12,22,09,25,0.30
2006,12,22,09,26,0.40
2006,12,22,09,27,2.40
2006,12,22,09,28,1.30
2006,12,22,09,29,1.80
2006,12,22,09,30,0.40
2006,12,22,09,31,0.70
2006,12,22,09,32,2.10
2006,12,22,09,33,0.40
2006,12,22,09,34,2.60
2006,12,22,09,35,2.50
2006,12,22,09,36,1.30
2006,12,22,09,37,5.70
2006,12,22,09,38,7.30
2006,12,22,09,39,7.60
2006,12,22,09,40,5.50
2006,12,22,09,41,5.70
2006,12,22,09,42,10.80
2006,12,22,09,43,9.70
2006,12,22,09,44,5.80
2006,12,22,09,45,6.50
2006,12,22,09,46,7.00
2006,12,22,09,47,4.50
2006,12,22,09,48,9.80
2006,12,22,09,49,8.70
2006,12,22,09,50,8.50
2006,12,22,09,51,6.50
2006,12,22,09,52,8.60
2006,12,22,09,53,10.10
2006,12,22,09,54,7.90
2006,12,22,09,55,3.30
2006,12,22,09,56,2.30
2006,12,22,09,57,8.00
2006,12,22,09,58,9.70
2006,12,22,09,59,13.20
2006,12,22,10,00,8.70
2006,12,22,10,01,10.10
2006,12,22,10,02,8.00
2006,12,22,10,03,4.10
2006,12,22,10,04,9.30
2006,12,22,10,05,12.60
2006,12,22,10,06,8.50
2006,12,22,10,07,11.50
2006,12,22,10,08,14.00
2006,12,22,10,09,15.70
2006,12,22,10,10,11.70
2006,12,22,10,11,18.30
2006,12,22,10,12,16.20
2006,12,22,10,13,16.10
2006,12,22,10,14,7.90
2006,12,22,10,15,14.60
2006,12,22,10,16,12.20
2006,12,22,10,17,12.30
2006,12,22,10,18,11.20
2006,12,22,10,19,9.00
2006,12,22,10,20,6.80
2006,12,22,10,21,7.00
2006,12,22,10,22,14.80
2006,12,22,10,23,16.70
2006,12,22,10,24,4.60
2006,12,22,10,25,11.00
2006,12,22,10,26,7.80
2006,12,22,10,27,9.20
2006,12,22,10,28,8.90
2006,12,22,10,29,10.60
2006,12,22,10,30,9.30
2006,12,22,10,31,14.20
2006,12,22,10,32,12.20
2006,12,22,10,33,17.10
2006,12,22,10,34,11.60
2006,12,22,10,35,14.50
2006,12,22,10,36,16.70
2006,12,22,10,37,14.90
2006,12,22,10,38,12.60
2006,12,22,10,39,12.90
2006,12,22,10,40,6.80
2006,12,22,10,41,13.00
2006,12,22,10,42,13.40
2006,12,22,10,43,5.90
2006,12,22,10,44,4.20
2006,12,22,10,45,7.20
2006,12,22,10,46,13.30
2006,12,22,10,47,15.00
2006,12,22,10,48,10.80
2006,12,22,10,49,17.20
2006,12,22,10,50,14.90
2006,12,22,10,51,8.10
2006,12,22,10,52,11.70
2006,12,22,10,53,13.40
2006,12,22,10,54,11.50
2006,12,22,10,55,12.70
2006,12,22,10,56,9.60
2006,12,22,10,57,8.10
2006,12,22,10,58,12.10
2006,12,22,10,59,14.70
2006,12,22,11,00,12.30
2006,12,22,11,01,12.10
2006,12,22,11,02,14.30
2006,12,22,11,03,13.80
2006,12,22,11,04,15.90
2006,12,22,11,05,14.60
2006,12,22,11,06,11.70
2006,12,22,11,07,11.10
2006,12,22,11,08,15.20
2006,12,22,11,09,10.70
2006,12,22,11,10,9.20
2006,12,22,11,11,8.60
2006,12,22,11,12,6.90
2006,12,22,11,13,6.00
2006,12,22,11,14,16.70
2006,12,22,11,15,14.20
2006,12,22,11,16,10.80
2006,12,22,11,17,14.40
2006,12,22,11,18,11.00
2006,12,22,11,19,10.30
2006,12,22,11,20,9.80
2006,12,22,11,21,10.50
2006,12,22,11,22,10.10
2006,12,22,11,23,5.80
2006,12,22,11,24,8.90
2006,12,22,11,25,7.10
2006,12,22,11,26,8.50
2006,12,22,11,27,12.60
2006,12,22,11,28,10.50
2006,12,22,11,29,10.50
2006,12,22,11,30,11.70
2006,12,22,11,31,10.80
2006,12,22,11,32,7.90
2006,12,22,11,33,9.40
2006,12,22,11,34,10.80
2006,12,22,11,35,8.40
2006,12,22,11,36,10.50
2006,12,22,11,37,6.20
2006,12,22,11,38,10.50
2006,12,22,11,39,7.10
2006,12,22,11,40,11.80
2006,12,22,11,41,11.90
2006,12,22,11,42,20.10
2006,12,22,11,43,15.00
2006,12,22,11,44,14.50
2006,12,22,11,45,18.80
2006,12,22,11,46,15.00
2006,12,22,11,47,17.10
2006,12,22,11,48,19.40
2006,12,22,11,49,8.90
2006,12,22,11,50,17.40
2006,12,22,11,51,16.70
2006,12,22,11,52,14.40
2006,12,22,11,53,17.40
2006,12,22,11,54,18.30
2006,12,22,11,55,16.40
2006,12,22,11,56,17.90
2006,12,22,11,57,15.90
2006,12,22,11,58,18.50
2006,12,22,11,59,13.80
2006,12,22,12,00,8.40
2006,12,22,12,01,6.40
2006,12,22,12,02,4.40
2006,12,22,12,03,16.80
2006,12,22,12,04,18.70
2006,12,22,12,05,15.10
2006,12,22,12,06,17.90
2006,12,22,12,07,15.80
2006,12,22,12,08,18.80
2006,12,22,12,09,12.30
2006,12,22,12,10,9.00
2006,12,22,12,11,13.20
2006,12,22,12,12,16.50
2006,12,22,12,13,17.90
2006,12,22,12,14,17.00
2006,12,22,12,15,19.80
2006,12,22,12,16,11.50
2006,12,22,12,17,9.70
2006,12,22,12,18,13.10
2006,12,22,12,19,15.00
2006,12,22,12,20,12.20
2006,12,22,12,21,8.20
2006,12,22,12,22,9.90
2006,12,22,12,23,17.50
2006,12,22,12,24,19.30
2006,12,22,12,25,16.20
2006,12,22,12,26,14.00
2006,12,22,12,27,17.10
2006,12,22,12,28,11.60
2006,12,22,12,29,12.40
2006,12,22,12,30,10.10
2006,12,22,12,31,9.90
2006,12,22,12,32,6.70
2006,12,22,12,33,12.50
2006,12,22,12,34,11.30
2006,12,22,12,35,12.20
2006,12,22,12,36,9.70
2006,12,22,12,37,14.30
2006,12,22,12,38,4.50
2006,12,22,12,39,9.90
2006,12,22,12,40,9.30
2006,12,22,12,41,9.10
2006,12,22,12,42,4.90
2006,12,22,12,43,7.00
2006,12,22,12,44,8.20
2006,12,22,12,45,7.50
2006,12,22,12,46,13.00
2006,12,22,12,47,14.40
2006,12,22,12,48,17.70
2006,12,22,12,49,15.00
2006,12,22,12,50,12.20
2006,12,22,12,51,11.80
2006,12,22,12,52,11.60
2006,12,22,12,53,10.90
2006,12,22,12,54,15.60
2006,12,22,12,55,10.40
2006,12,22,12,56,7.20
2006,12,22,12,57,14.20
2006,12,22,12,58,11.00
2006,12,22,12,59,10.60
2006,12,22,13,00,9.50
2006,12,22,13,01,7.40
2006,12,22,13,02,8.90
2006,12,22,13,03,13.90
2006,12,22,13,04,11.00
2006,12,22,13,05,11.20
2006,12,22,13,06,7.80
2006,12,22,13,07,11.50
2006,12,22,13,08,11.10
2006,12,22,13,09,12.70
2006,12,22,13,10,6.60
2006,12,22,13,11,9.30
2006,12,22,13,12,6.70
2006,12,22,13,13,10.40
2006,12,22,13,14,8.90
2006,12,22,13,15,14.10
2006,12,22,13,16,7.10
2006,12,22,13,17,10.00
2006,12,22,13,18,9.80
2006,12,22,13,19,11.30
2006,12,22,13,20,17.70
2006,12,22,13,21,11.50
2006,12,22,13,22,10.70
2006,12,22,13,23,9.50
2006,12,22,13,24,11.10
2006,12,22,13,25,14.10
2006,12,22,13,26,11.50
2006,12,22,13,27,12.70
2006,12,22,13,28,5.60
2006,12,22,13,29,10.30
2006,12,22,13,30,12.20
2006,12,22,13,31,9.50
2006,12,22,13,32,10.20
2006,12,22,13,33,9.50
2006,12,22,13,34,10.40
2006,12,22,13,35,12.30
2006,12,22,13,36,9.70
2006,12,22,13,37,18.50
2006,12,22,13,38,11.80
2006,12,22,13,39,10.70
2006,12,22,13,40,11.70
2006,12,22,13,41,5.20
2006,12,22,13,42,12.20
2006,12,22,13,43,12.20
2006,12,22,13,44,13.70
2006,12,22,13,45,10.30
2006,12,22,13,46,8.10
2006,12,22,13,47,9.00
2006,12,22,13,48,8.10
2006,12,22,13,49,9.60
2006,12,22,13,50,10.20
2006,12,22,13,51,10.90
2006,12,22,13,52,13.20
2006,12,22,13,53,11.20
2006,12,22,13,54,14.20
2006,12,22,13,55,9.70
2006,12,22,13,56,8.50
2006,12,22,13,57,12.10
2006,12,22,13,58,9.20
2006,12,22,13,59,4.20
2006,12,22,14,00,7.20
2006,12,22,14,01,10.10
2006,12,22,14,02,10.50
2006,12,22,14,03,13.80
2006,12,22,14,04,8.80
2006,12,22,14,05,7.10
2006,12,22,14,06,6.20
2006,12,22,14,07,7.40
2006,12,22,14,08,6.70
2006,12,22,14,09,7.60
2006,12,22,14,10,3.70
2006,12,22,14,11,3.90
2006,12,22,14,12,7.50
2006,12,22,14,13,10.10
2006,12,22,14,14,11.50
2006,12,22,14,15,11.40
2006,12,22,14,16,10.70
2006,12,22,14,17,6.20
2006,12,22,14,18,4.50
2006,12,22,14,19,8.70
2006,12,22,14,20,9.80
2006,12,22,14,21,8.50
2006,12,22,14,22,7.50
2006,12,22,14,23,6.80
2006,12,22,14,24,8.10
2006,12,22,14,25,7.40
2006,12,22,14,26,3.10
2006,12,22,14,27,4.80
2006,12,22,14,28,6.10
2006,12,22,14,29,6.00
2006,12,22,14,30,5.60
2006,12,22,14,31,5.60
2006,12,22,14,32,13.70
2006,12,22,14,33,6.70
2006,12,22,14,34,9.70
2006,12,22,14,35,8.90
2006,12,22,14,36,8.50
2006,12,22,14,37,3.90
2006,12,22,14,38,3.00
2006,12,22,14,39,7.40
2006,12,22,14,40,5.70
2006,12,22,14,41,5.00
2006,12,22,14,42,14.80
2006,12,22,14,43,12.00
2006,12,22,14,44,10.90
2006,12,22,14,45,12.50
2006,12,22,14,46,10.90
2006,12,22,14,47,14.30
2006,12,22,14,48,10.90
2006,12,22,14,49,7.20
2006,12,22,14,50,8.20
2006,12,22,14,51,3.60
2006,12,22,14,52,8.10
2006,12,22,14,53,9.00
2006,12,22,14,54,9.80
2006,12,22,14,55,7.50
2006,12,22,14,56,10.50
2006,12,22,14,57,5.70
2006,12,22,14,58,9.90
2006,12,22,14,59,7.50
2006,12,22,15,00,6.70
2006,12,22,15,01,9.50
2006,12,22,15,02,7.40
2006,12,22,15,03,8.80
2006,12,22,15,04,6.00
2006,12,22,15,05,3.90
2006,12,22,15,06,5.20
2006,12,22,15,07,7.50
2006,12,22,15,08,5.00
2006,12,22,15,09,9.20
2006,12,22,15,10,9.20
2006,12,22,15,11,14.50
2006,12,22,15,12,10.80
2006,12,22,15,13,10.10
2006,12,22,15,14,8.40
2006,12,22,15,15,8.40
2006,12,22,15,16,12.20
2006,12,22,15,17,9.20
2006,12,22,15,18,13.40
2006,12,22,15,19,9.40
2006,12,22,15,20,7.10
2006,12,22,15,21,2.00
2006,12,22,15,22,1.90
2006,12,22,15,23,11.30
2006,12,22,15,24,13.10
2006,12,22,15,25,11.80
2006,12,22,15,26,9.60
2006,12,22,15,27,11.30
2006,12,22,15,28,2.80
2006,12,22,15,29,6.00
2006,12,22,15,30,3.70
2006,12,22,15,31,5.90
2006,12,22,15,32,8.90
2006,12,22,15,33,6.40
2006,12,22,15,34,9.20
2006,12,22,15,35,11.20
2006,12,22,15,36,10.80
2006,12,22,15,37,9.30
2006,12,22,15,38,6.30
2006,12,22,15,39,5.60
2006,12,22,15,40,9.30
2006,12,22,15,41,10.10
2006,12,22,15,42,12.10
2006,12,22,15,43,14.70
2006,12,22,15,44,14.00
2006,12,22,15,45,10.60
2006,12,22,15,46,14.70
2006,12,22,15,47,14.50
2006,12,22,15,48,15.00
2006,12,22,15,49,13.70
2006,12,22,15,50,9.80
2006,12,22,15,51,8.80
2006,12,22,15,52,9.40
2006,12,22,15,53,8.40
2006,12,22,15,54,9.40
2006,12,22,15,55,5.30
2006,12,22,15,56,7.30
2006,12,22,15,57,9.60
2006,12,22,15,58,4.70
2006,12,22,15,59,8.00
2006,12,22,16,00,7.50
2006,12,22,16,01,6.40
2006,12,22,16,02,5.50
2006,12,22,16,03,5.10
2006,12,22,16,04,9.10
2006,12,22,16,05,9.00
2006,12,22,16,06,9.70
2006,12,22,16,07,11.20
2006,12,22,16,08,12.80
2006,12,22,16,09,8.30
2006,12,22,16,10,7.90
2006,12,22,16,11,5.90
2006,12,22,16,12,6.70
2006,12,22,16,13,2.80
2006,12,22,16,14,2.10
2006,12,22,16,15,2.30
2006,12,22,16,16,6.10
2006,12,22,16,17,4.80
2006,12,22,16,18,5.40
2006,12,22,16,19,3.70
2006,12,22,16,20,0.70
2006,12,22,16,21,3.60
2006,12,22,16,22,3.10
2006,12,22,16,23,7.70
2006,12,22,16,24,4.00
2006,12,22,16,25,5.70
2006,12,22,16,26,6.80
2006,12,22,16,27,5.50
2006,12,22,16,28,6.80
2006,12,22,16,29,5.70
2006,12,22,16,30,6.80
2006,12,22,16,31,7.30
2006,12,22,16,32,3.40
2006,12,22,16,33,10.50
2006,12,22,16,34,8.70
2006,12,22,16,35,3.80
2006,12,22,16,36,2.50
2006,12,22,16,37,4.10
2006,12,22,16,38,7.60
2006,12,22,16,39,12.00
2006,12,22,16,40,8.10
2006,12,22,16,41,4.60
2006,12,22,16,42,3.80
2006,12,22,16,43,7.80
2006,12,22,16,44,5.10
2006,12,22,16,45,6.70
2006,12,22,16,46,7.80
2006,12,22,16,47,10.90
2006,12,22,16,48,6.80
2006,12,22,16,49,7.40
2006,12,22,16,50,8.20
2006,12,22,16,51,5.00
2006,12,22,16,52,5.60
2006,12,22,16,53,7.90
2006,12,22,16,54,7.10
2006,12,22,16,55,7.50
2006,12,22,16,56,6.80
2006,12,22,16,57,6.10
2006,12,22,16,58,10.30
2006,12,22,16,59,10.50
2006,12,22,17,00,6.00
2006,12,22,17,01,5.20
2006,12,22,17,02,8.40
2006,12,22,17,03,9.30
2006,12,22,17,04,6.00
2006,12,22,17,05,7.40
2006,12,22,17,06,9.40
2006,12,22,17,07,6.90
2006,12,22,17,08,5.20
2006,12,22,17,09,4.70
2006,12,22,17,10,4.40
2006,12,22,17,11,8.30
2006,12,22,17,12,13.30
2006,12,22,17,13,11.50
2006,12,22,17,14,8.80
2006,12,22,17,15,8.60
2006,12,22,17,16,5.10
2006,12,22,17,17,8.90
2006,12,22,17,18,12.00
2006,12,22,17,19,11.00
2006,12,22,17,20,9.50
2006,12,22,17,21,9.00
2006,12,22,17,22,9.30
2006,12,22,17,23,12.90
2006,12,22,17,24,10.70
2006,12,22,17,25,12.30
2006,12,22,17,26,5.90
2006,12,22,17,27,13.20
2006,12,22,17,28,7.20
2006,12,22,17,29,8.90
2006,12,22,17,30,7.60
2006,12,22,17,31,4.40
2006,12,22,17,32,4.20
2006,12,22,17,33,12.20
2006,12,22,17,34,19.10
2006,12,22,17,35,11.10
2006,12,22,17,36,14.70
2006,12,22,17,37,20.00
2006,12,22,17,38,16.20
2006,12,22,17,39,16.90
2006,12,22,17,40,16.70
2006,12,22,17,41,12.20
2006,12,22,17,42,11.50
2006,12,22,17,43,14.60
2006,12,22,17,44,13.60
2006,12,22,17,45,16.90
2006,12,22,17,46,16.50
2006,12,22,17,47,13.60
2006,12,22,17,48,12.90
2006,12,22,17,49,17.10
2006,12,22,17,50,10.90
2006,12,22,17,51,12.90
2006,12,22,17,52,20.20
2006,12,22,17,53,13.10
2006,12,22,17,54,10.50
2006,12,22,17,55,8.70